Time,TemperatureF,DewpointF,PressureIn,WindDirection,WindDirectionDegrees,WindSpeedMPH,WindSpeedGustMPH,Humidity,HourlyPrecipIn,Conditions,Clouds,dailyrainin,SoftwareType,DateUTC
2014-01-11 00:01:00,68.0,67.4,30.12,WSW,248,0.0,0.0,98,0.00,BKN,,0.00,WeatherDisplay:10.37,2014-01-11 05:01:00,
2014-01-11 00:02:00,68.0,67.4,30.12,WSW,248,0.0,0.0,98,0.00,BKN,,0.00,WeatherDisplay:10.37,2014-01-11 05:02:00,
2014-01-11 00:07:00,68.0,67.4,30.12,WSW,248,1.2,0.0,98,0.00,BKN,,0.00,WeatherDisplay:10.37,2014-01-11 05:07:00,
2014-01-11 00:12:00,68.0,67.4,30.12,WSW,248,0.0,0.9,98,0.00,BKN,,0.00,WeatherDisplay:10.37,2014-01-11 05:12:00,
2014-01-11 00:17:00,68.0,67.4,30.12,WSW,248,0.0,0.0,98,0.00,BKN,,0.00,WeatherDisplay:10.37,2014-01-11 05:17:00,
2014-01-11 00:22:00,68.0,67.4,30.12,WSW,248,0.0,0.0,98,0.00,BKN,,0.00,WeatherDisplay:10.37,2014-01-11 05:22:00,
2014-01-11 00:27:00,68.0,67.4,30.12,WSW,248,0.0,0.0,98,0.00,BKN,,0.00,WeatherDisplay:10.37,2014-01-11 05:27:00,
2014-01-11 00:32:00,68.0,67.4,30.12,WSW,248,2.3,2.3,98,0.00,BKN,,0.00,WeatherDisplay:10.37,2014-01-11 05:32:00,
2014-01-11 00:37:00,68.0,67.4,30.09,SW,225,2.3,2.3,98,0.00,BKN,,0.00,WeatherDisplay:10.37,2014-01-11 05:37:00,
2014-01-11 00:42:00,68.0,67.4,30.09,WSW,248,2.3,2.3,98,0.00,BKN,,0.00,WeatherDisplay:10.37,2014-01-11 05:42:00,
2014-01-11 00:47:00,68.0,67.4,30.09,WSW,248,1.2,1.2,98,0.00,BKN,,0.00,WeatherDisplay:10.37,2014-01-11 05:47:00,
2014-01-11 00:52:00,68.0,67.4,30.09,WSW,248,2.3,2.3,98,0.00,BKN,,0.00,WeatherDisplay:10.37,2014-01-11 05:52:00,
2014-01-11 00:57:00,68.0,67.4,30.09,SW,225,2.0,0.0,98,0.00,BKN,,0.00,WeatherDisplay:10.37,2014-01-11 05:57:00,
2014-01-11 01:02:00,68.0,67.4,30.09,WSW,248,2.3,2.3,98,0.00,CLR,,0.00,WeatherDisplay:10.37,2014-01-11 06:02:00,
2014-01-11 01:07:00,68.0,67.4,30.09,WSW,248,2.3,2.3,98,0.00,CLR,,0.00,WeatherDisplay:10.37,2014-01-11 06:07:00,
2014-01-11 01:12:00,68.0,67.4,30.09,WSW,248,1.6,0.0,98,0.00,CLR,,0.00,WeatherDisplay:10.37,2014-01-11 06:12:00,
2014-01-11 01:17:00,68.0,67.4,30.09,WSW,248,2.3,2.3,98,0.00,CLR,,0.00,WeatherDisplay:10.37,2014-01-11 06:17:00,
2014-01-11 01:22:00,68.0,67.4,30.09,WSW,248,0.0,0.0,98,0.00,CLR,,0.00,WeatherDisplay:10.37,2014-01-11 06:22:00,
2014-01-11 01:27:00,68.0,67.4,30.09,WSW,248,0.0,0.0,98,0.00,CLR,,0.00,WeatherDisplay:10.37,2014-01-11 06:27:00,
2014-01-11 01:32:00,68.0,68.0,30.09,WSW,248,0.0,0.0,100,0.00,CLR,,0.00,WeatherDisplay:10.37,2014-01-11 06:32:00,
2014-01-11 01:37:00,68.0,68.0,30.09,WSW,248,0.0,0.0,100,0.00,CLR,,0.00,WeatherDisplay:10.37,2014-01-11 06:37:00,
2014-01-11 01:42:00,68.0,67.4,30.06,SSW,202,2.3,2.3,98,0.00,CLR,,0.00,WeatherDisplay:10.37,2014-01-11 06:42:00,
2014-01-11 01:47:00,68.0,68.0,30.09,SSW,202,1.2,1.2,100,0.00,CLR,,0.00,WeatherDisplay:10.37,2014-01-11 06:47:00,
2014-01-11 01:52:00,68.0,67.4,30.09,WSW,248,1.2,1.2,98,0.00,CLR,,0.00,WeatherDisplay:10.37,2014-01-11 06:52:00,
2014-01-11 01:57:00,68.0,67.4,30.09,WSW,248,0.0,0.0,98,0.00,CLR,,0.00,WeatherDisplay:10.37,2014-01-11 06:57:00,
2014-01-11 02:02:00,68.0,67.4,30.06,WSW,248,0.0,0.0,98,0.00,FEW,,0.00,WeatherDisplay:10.37,2014-01-11 07:02:00,
2014-01-11 02:07:00,68.0,67.4,30.06,WSW,248,0.0,0.0,98,0.00,FEW,,0.00,WeatherDisplay:10.37,2014-01-11 07:07:00,
2014-01-11 02:12:00,68.0,67.4,30.06,WSW,248,1.2,0.0,98,0.00,FEW,,0.00,WeatherDisplay:10.37,2014-01-11 07:12:00,
2014-01-11 02:17:00,68.0,67.4,30.12,WSW,248,1.2,0.0,98,0.00,FEW,,0.00,WeatherDisplay:10.37,2014-01-11 07:17:00,
2014-01-11 02:22:00,68.0,67.4,30.12,WSW,248,1.2,0.0,98,0.00,FEW,,0.00,WeatherDisplay:10.37,2014-01-11 07:22:00,
2014-01-11 02:27:00,68.0,67.4,30.12,WSW,248,0.0,0.0,98,0.00,FEW,,0.00,WeatherDisplay:10.37,2014-01-11 07:27:00,
2014-01-11 02:32:00,68.0,67.4,30.09,WSW,248,0.0,0.0,98,0.00,FEW,,0.00,WeatherDisplay:10.37,2014-01-11 07:32:00,
2014-01-11 02:37:00,68.0,67.4,30.09,WSW,248,0.0,0.9,98,0.00,FEW,,0.00,WeatherDisplay:10.37,2014-01-11 07:37:00,
2014-01-11 02:42:00,68.0,67.4,30.09,WSW,248,0.0,0.0,98,0.00,FEW,,0.00,WeatherDisplay:10.37,2014-01-11 07:42:00,
2014-01-11 02:47:00,68.0,67.4,30.09,WSW,248,0.0,0.0,98,0.00,FEW,,0.00,WeatherDisplay:10.37,2014-01-11 07:47:00,
2014-01-11 02:52:00,68.0,67.4,30.09,WSW,248,1.2,0.0,98,0.00,FEW,,0.00,WeatherDisplay:10.37,2014-01-11 07:52:00,
2014-01-11 02:57:00,68.0,67.4,30.09,WNW,292,1.2,0.0,98,0.00,FEW,,0.00,WeatherDisplay:10.37,2014-01-11 07:57:00,
2014-01-11 03:02:00,68.0,67.4,30.09,WNW,292,0.0,0.0,98,0.00,,,0.00,WeatherDisplay:10.37,2014-01-11 08:02:00,
2014-01-11 03:07:00,68.0,67.4,30.09,WNW,292,0.9,0.0,98,0.00,,,0.00,WeatherDisplay:10.37,2014-01-11 08:07:00,
2014-01-11 03:12:00,68.0,67.4,30.09,WNW,292,0.0,0.0,98,0.00,,,0.00,WeatherDisplay:10.37,2014-01-11 08:12:00,
2014-01-11 03:17:00,68.0,67.4,30.09,WNW,292,0.0,0.0,98,0.00,,,0.00,WeatherDisplay:10.37,2014-01-11 08:17:00,
2014-01-11 03:22:00,68.0,67.4,30.09,WNW,292,0.0,0.0,98,0.00,,,0.00,WeatherDisplay:10.37,2014-01-11 08:22:00,
2014-01-11 03:27:00,68.0,67.4,30.09,WNW,292,0.0,0.0,98,0.00,,,0.00,WeatherDisplay:10.37,2014-01-11 08:27:00,
2014-01-11 03:32:00,68.0,67.4,30.06,WNW,292,0.0,0.0,98,0.00,,,0.00,WeatherDisplay:10.37,2014-01-11 08:32:00,
2014-01-11 03:37:00,68.0,67.4,30.06,WNW,292,0.0,0.0,98,0.00,,,0.00,WeatherDisplay:10.37,2014-01-11 08:37:00,
2014-01-11 03:42:00,68.0,67.4,30.06,WNW,292,0.0,0.0,98,0.00,,,0.00,WeatherDisplay:10.37,2014-01-11 08:42:00,
2014-01-11 03:47:00,68.0,67.4,30.06,WNW,292,0.0,0.0,98,0.00,,,0.00,WeatherDisplay:10.37,2014-01-11 08:47:00,
2014-01-11 03:52:00,68.0,67.4,30.06,WNW,292,0.0,0.0,98,0.00,,,0.00,WeatherDisplay:10.37,2014-01-11 08:52:00,
2014-01-11 03:57:00,68.0,67.4,30.06,WSW,248,2.3,2.3,98,0.00,,,0.00,WeatherDisplay:10.37,2014-01-11 08:57:00,
2014-01-11 04:02:00,68.0,67.4,30.06,WSW,248,2.3,2.3,98,0.00,,,0.00,WeatherDisplay:10.37,2014-01-11 09:02:00,
2014-01-11 04:07:00,68.0,67.4,30.06,WNW,292,1.2,0.0,98,0.00,,,0.00,WeatherDisplay:10.37,2014-01-11 09:07:00,
2014-01-11 04:12:00,68.0,67.4,30.06,WNW,292,0.0,0.0,98,0.00,,,0.00,WeatherDisplay:10.37,2014-01-11 09:12:00,
2014-01-11 04:17:00,68.0,67.4,30.06,WNW,292,0.0,0.0,98,0.00,,,0.00,WeatherDisplay:10.37,2014-01-11 09:17:00,
2014-01-11 04:22:00,68.0,67.4,30.06,WNW,292,0.0,0.0,98,0.00,,,0.00,WeatherDisplay:10.37,2014-01-11 09:22:00,
2014-01-11 04:27:00,68.0,67.4,30.06,WNW,292,0.0,0.0,98,0.00,,,0.00,WeatherDisplay:10.37,2014-01-11 09:27:00,
2014-01-11 04:32:00,68.0,67.4,30.06,WNW,292,2.0,2.0,98,0.00,,,0.00,WeatherDisplay:10.37,2014-01-11 09:32:00,
2014-01-11 04:37:00,68.0,67.4,30.06,WNW,292,1.4,1.4,98,0.00,,,0.00,WeatherDisplay:10.37,2014-01-11 09:37:00,
2014-01-11 04:42:00,68.0,67.4,30.06,WNW,292,0.0,0.0,98,0.00,,,0.00,WeatherDisplay:10.37,2014-01-11 09:42:00,
2014-01-11 04:47:00,68.0,67.4,30.06,WNW,292,0.0,0.0,98,0.00,,,0.00,WeatherDisplay:10.37,2014-01-11 09:47:00,
2014-01-11 04:52:00,68.0,67.4,30.06,WNW,292,1.4,1.4,98,0.00,,,0.00,WeatherDisplay:10.37,2014-01-11 09:52:00,
2014-01-11 04:57:00,68.0,67.4,30.06,WNW,292,2.3,0.0,98,0.00,,,0.00,WeatherDisplay:10.37,2014-01-11 09:57:00,
2014-01-11 05:02:00,68.0,67.4,30.06,WNW,292,2.3,2.3,98,0.00,,,0.00,WeatherDisplay:10.37,2014-01-11 10:02:00,
2014-01-11 05:07:00,68.0,67.4,30.06,WNW,292,2.9,0.0,98,0.00,,,0.00,WeatherDisplay:10.37,2014-01-11 10:07:00,
2014-01-11 05:12:00,68.0,67.4,30.06,West,270,2.6,2.6,98,0.00,,,0.00,WeatherDisplay:10.37,2014-01-11 10:12:00,
2014-01-11 05:17:00,68.0,67.4,30.06,WNW,292,2.9,2.9,98,0.00,,,0.00,WeatherDisplay:10.37,2014-01-11 10:17:00,
2014-01-11 05:22:00,68.0,67.4,30.06,West,270,2.3,2.3,98,0.00,,,0.00,WeatherDisplay:10.37,2014-01-11 10:22:00,
2014-01-11 05:27:00,68.0,67.4,30.06,WNW,292,3.5,4.7,98,0.00,,,0.00,WeatherDisplay:10.37,2014-01-11 10:27:00,
2014-01-11 05:32:00,68.0,67.4,30.06,WNW,292,3.5,3.5,98,0.00,,,0.00,WeatherDisplay:10.37,2014-01-11 10:32:00,
2014-01-11 05:37:00,68.0,67.4,30.06,WNW,292,5.8,5.8,98,0.00,,,0.00,WeatherDisplay:10.37,2014-01-11 10:37:00,
2014-01-11 05:42:00,68.0,67.4,30.06,WNW,292,2.3,2.3,98,0.00,,,0.00,WeatherDisplay:10.37,2014-01-11 10:42:00,
2014-01-11 05:47:00,68.0,67.4,30.06,WSW,248,3.5,3.5,98,0.00,,,0.00,WeatherDisplay:10.37,2014-01-11 10:47:00,
2014-01-11 05:52:00,68.0,67.4,30.06,SW,225,3.1,3.1,98,0.00,,,0.00,WeatherDisplay:10.37,2014-01-11 10:52:00,
2014-01-11 05:58:00,68.0,67.4,30.06,WSW,248,2.3,2.3,98,0.00,,,0.00,WeatherDisplay:10.37,2014-01-11 10:58:00,
2014-01-11 06:02:00,68.0,67.4,30.06,WSW,248,2.4,2.4,98,0.00,,,0.00,WeatherDisplay:10.37,2014-01-11 11:02:00,
2014-01-11 06:08:00,68.0,67.4,30.06,WSW,248,4.6,4.6,98,0.00,,,0.00,WeatherDisplay:10.37,2014-01-11 11:08:00,
2014-01-11 06:13:00,68.0,67.4,30.06,West,270,3.5,3.5,98,0.00,,,0.00,WeatherDisplay:10.37,2014-01-11 11:13:00,
2014-01-11 06:18:00,68.0,67.4,30.06,WSW,248,4.6,4.6,98,0.00,,,0.00,WeatherDisplay:10.37,2014-01-11 11:18:00,
2014-01-11 06:23:00,68.0,67.4,30.06,SSW,202,4.6,4.6,98,0.00,,,0.00,WeatherDisplay:10.37,2014-01-11 11:23:00,
2014-01-11 06:28:00,68.0,67.4,30.06,WSW,248,4.6,4.6,98,0.00,,,0.00,WeatherDisplay:10.37,2014-01-11 11:28:00,
2014-01-11 06:33:00,68.0,67.4,30.06,WNW,292,3.5,3.5,98,0.00,,,0.00,WeatherDisplay:10.37,2014-01-11 11:33:00,
2014-01-11 06:38:00,68.0,67.4,30.06,WSW,248,3.8,3.8,98,0.00,,,0.00,WeatherDisplay:10.37,2014-01-11 11:38:00,
2014-01-11 06:43:00,68.0,67.4,30.06,West,270,4.6,4.6,98,0.00,,,0.00,WeatherDisplay:10.37,2014-01-11 11:43:00,
2014-01-11 06:48:00,68.0,67.4,30.06,WSW,248,4.6,4.6,98,0.00,,,0.00,WeatherDisplay:10.37,2014-01-11 11:48:00,
2014-01-11 06:53:00,68.0,67.4,30.06,SW,225,3.6,4.3,98,0.00,,,0.00,WeatherDisplay:10.37,2014-01-11 11:53:00,
2014-01-11 06:58:00,68.0,67.4,30.06,WNW,292,2.4,2.6,98,0.00,,,0.00,WeatherDisplay:10.37,2014-01-11 11:58:00,
2014-01-11 07:03:00,68.0,67.4,30.03,West,270,3.5,3.8,98,0.00,-RA,,0.00,WeatherDisplay:10.37,2014-01-11 12:03:00,
2014-01-11 07:08:00,68.0,67.4,30.03,West,270,3.5,3.8,98,0.00,-RA,,0.00,WeatherDisplay:10.37,2014-01-11 12:08:00,
2014-01-11 07:13:00,68.0,67.4,30.03,WSW,248,4.9,4.9,98,0.00,-RA,,0.00,WeatherDisplay:10.37,2014-01-11 12:13:00,
2014-01-11 07:18:00,68.0,67.4,30.06,WSW,248,4.9,4.9,98,0.00,-RA,,0.00,WeatherDisplay:10.37,2014-01-11 12:18:00,
2014-01-11 07:23:00,68.0,67.4,30.06,West,270,4.6,4.6,98,0.00,-RA,,0.00,WeatherDisplay:10.37,2014-01-11 12:23:00,
2014-01-11 07:28:00,68.0,67.4,30.06,SSW,202,5.8,5.8,98,0.00,-RA,,0.00,WeatherDisplay:10.37,2014-01-11 12:28:00,
2014-01-11 07:33:00,68.0,67.4,30.03,SSW,202,5.8,5.8,98,0.00,-RA,,0.00,WeatherDisplay:10.37,2014-01-11 12:33:00,
2014-01-11 07:38:00,68.0,67.4,30.03,SSW,202,5.8,5.8,98,0.00,-RA,,0.00,WeatherDisplay:10.37,2014-01-11 12:38:00,
2014-01-11 07:43:00,68.0,67.4,30.03,WSW,248,2.4,4.9,98,0.00,-RA,,0.00,WeatherDisplay:10.37,2014-01-11 12:43:00,
2014-01-11 07:48:00,68.0,68.0,30.04,WSW,248,2.4,4.9,100,0.00,-RA,,0.00,WeatherDisplay:10.37,2014-01-11 12:48:00,
2014-01-11 07:53:00,68.0,67.4,30.06,WSW,248,2.4,4.9,98,0.00,-RA,,0.00,WeatherDisplay:10.37,2014-01-11 12:53:00,
2014-01-11 07:58:00,70.0,70.0,30.04,WSW,248,2.4,4.9,100,0.00,-RA,,0.00,WeatherDisplay:10.37,2014-01-11 12:58:00,
2014-01-11 08:03:00,70.0,69.4,30.06,WSW,248,2.4,4.9,98,0.00,OVC,,0.00,WeatherDisplay:10.37,2014-01-11 13:03:00,
2014-01-11 08:08:00,70.0,69.4,30.06,SSE,158,6.9,6.9,98,0.00,OVC,,0.00,WeatherDisplay:10.37,2014-01-11 13:08:00,
2014-01-11 08:13:00,70.0,69.4,30.06,South,180,5.8,5.8,98,0.00,OVC,,0.00,WeatherDisplay:10.37,2014-01-11 13:13:00,
2014-01-11 08:18:00,70.0,69.4,30.06,South,180,6.9,6.9,98,0.00,OVC,,0.00,WeatherDisplay:10.37,2014-01-11 13:18:00,
2014-01-11 08:23:00,70.0,69.4,30.06,SSE,158,5.8,5.8,98,0.00,OVC,,0.00,WeatherDisplay:10.37,2014-01-11 13:23:00,
2014-01-11 08:28:00,70.2,69.6,30.06,SW,225,5.8,5.8,98,0.00,OVC,,0.00,WeatherDisplay:10.37,2014-01-11 13:28:00,
2014-01-11 08:33:00,70.2,69.6,30.09,WSW,248,8.1,8.1,98,0.00,OVC,,0.00,WeatherDisplay:10.37,2014-01-11 13:33:00,
2014-01-11 08:38:00,70.3,69.7,30.09,WSW,248,3.6,3.6,98,0.00,OVC,,0.00,WeatherDisplay:10.37,2014-01-11 13:38:00,
2014-01-11 08:43:00,70.5,69.9,30.09,SSW,202,4.6,4.6,98,0.00,OVC,,0.00,WeatherDisplay:10.37,2014-01-11 13:43:00,
2014-01-11 08:48:00,70.5,69.9,30.09,SSW,202,4.9,4.9,98,0.00,OVC,,0.00,WeatherDisplay:10.37,2014-01-11 13:48:00,
2014-01-11 08:53:00,70.5,69.9,30.09,SSE,158,3.5,3.5,98,0.00,OVC,,0.00,WeatherDisplay:10.37,2014-01-11 13:53:00,
2014-01-11 08:58:00,70.9,70.3,30.09,SW,225,5.8,5.8,98,0.00,OVC,,0.00,WeatherDisplay:10.37,2014-01-11 13:58:00,
2014-01-11 09:03:00,70.9,70.3,30.09,South,180,8.1,8.1,98,0.00,OVC,,0.00,WeatherDisplay:10.37,2014-01-11 14:03:00,
2014-01-11 09:08:00,71.1,70.5,30.09,SSW,202,5.9,5.9,98,0.00,OVC,,0.00,WeatherDisplay:10.37,2014-01-11 14:08:00,
2014-01-11 09:13:00,71.4,70.8,30.09,WSW,248,5.8,5.8,98,0.00,OVC,,0.00,WeatherDisplay:10.37,2014-01-11 14:13:00,
2014-01-11 09:18:00,71.6,71.0,30.09,SSW,202,8.1,8.1,98,0.00,OVC,,0.00,WeatherDisplay:10.37,2014-01-11 14:18:00,
2014-01-11 09:23:00,71.8,71.2,30.09,WSW,248,3.5,3.5,98,0.00,OVC,,0.00,WeatherDisplay:10.37,2014-01-11 14:23:00,
2014-01-11 09:28:00,72.0,71.4,30.09,South,180,6.9,6.9,98,0.00,OVC,,0.00,WeatherDisplay:10.37,2014-01-11 14:28:00,
2014-01-11 09:33:00,72.1,71.2,30.09,SSW,202,5.8,5.8,97,0.00,OVC,,0.00,WeatherDisplay:10.37,2014-01-11 14:33:00,
2014-01-11 09:38:00,72.5,71.6,30.09,SSW,202,7.4,7.4,97,0.00,OVC,,0.00,WeatherDisplay:10.37,2014-01-11 14:38:00,
2014-01-11 09:43:00,72.7,71.5,30.09,SSW,202,17.3,17.3,96,0.00,OVC,,0.00,WeatherDisplay:10.37,2014-01-11 14:43:00,
2014-01-11 09:48:00,72.5,71.0,30.12,SSE,158,12.7,12.7,95,0.00,OVC,,0.00,WeatherDisplay:10.37,2014-01-11 14:48:00,
2014-01-11 09:53:00,72.5,71.0,30.12,SSE,158,10.4,10.4,95,0.00,OVC,,0.00,WeatherDisplay:10.37,2014-01-11 14:53:00,
2014-01-11 09:58:00,72.9,71.3,30.12,SSE,158,12.8,12.8,95,0.00,OVC,,0.00,WeatherDisplay:10.37,2014-01-11 14:58:00,
2014-01-11 10:03:00,72.9,71.3,30.09,South,180,8.1,8.1,95,0.00,OVC,,0.00,WeatherDisplay:10.37,2014-01-11 15:03:00,
2014-01-11 10:08:00,73.2,71.7,30.09,ENE,68,11.5,11.5,95,0.00,OVC,,0.00,WeatherDisplay:10.37,2014-01-11 15:08:00,
2014-01-11 10:13:00,73.6,71.7,30.09,SSE,158,10.4,10.4,94,0.00,OVC,,0.00,WeatherDisplay:10.37,2014-01-11 15:13:00,
2014-01-11 10:18:00,74.1,72.0,30.09,South,180,7.8,7.8,93,0.00,OVC,,0.00,WeatherDisplay:10.37,2014-01-11 15:18:00,
2014-01-11 10:23:00,74.7,72.2,30.09,South,180,8.1,8.1,92,0.00,OVC,,0.00,WeatherDisplay:10.37,2014-01-11 15:23:00,
2014-01-11 10:28:00,74.5,71.7,30.09,SSE,158,12.7,12.7,91,0.00,OVC,,0.00,WeatherDisplay:10.37,2014-01-11 15:28:00,
2014-01-11 10:33:00,74.5,71.7,30.09,South,180,13.0,13.0,91,0.00,OVC,,0.00,WeatherDisplay:10.37,2014-01-11 15:33:00,
2014-01-11 10:38:00,74.8,72.0,30.09,SE,135,8.7,8.7,91,0.00,OVC,,0.00,WeatherDisplay:10.37,2014-01-11 15:38:00,
2014-01-11 10:43:00,75.0,71.6,30.09,SSE,158,12.7,12.7,89,0.00,OVC,,0.00,WeatherDisplay:10.37,2014-01-11 15:43:00,
2014-01-11 10:48:00,75.2,71.7,30.09,SSE,158,14.7,14.7,89,0.00,OVC,,0.00,WeatherDisplay:10.37,2014-01-11 15:48:00,
2014-01-11 10:53:00,76.8,73.0,30.09,SSW,202,9.2,9.2,88,0.00,OVC,,0.00,WeatherDisplay:10.37,2014-01-11 15:53:00,
2014-01-11 10:58:00,78.3,72.7,30.09,SE,135,11.5,11.5,83,0.00,OVC,,0.00,WeatherDisplay:10.37,2014-01-11 15:58:00,
2014-01-11 11:03:00,79.3,73.0,30.09,SSW,202,9.2,9.2,81,0.00,OVC,,0.00,WeatherDisplay:10.37,2014-01-11 16:03:00,
2014-01-11 11:08:00,78.4,71.8,30.09,SSE,158,10.4,10.4,80,0.00,OVC,,0.00,WeatherDisplay:10.37,2014-01-11 16:08:00,
2014-01-11 11:13:00,77.5,71.2,30.09,South,180,15.0,15.0,81,0.00,OVC,,0.00,WeatherDisplay:10.37,2014-01-11 16:13:00,
2014-01-11 11:18:00,78.6,71.9,30.06,SSW,202,10.4,10.4,80,0.00,OVC,,0.00,WeatherDisplay:10.37,2014-01-11 16:18:00,
2014-01-11 11:23:00,79.2,72.1,30.06,South,180,10.4,10.4,79,0.00,OVC,,0.00,WeatherDisplay:10.37,2014-01-11 16:23:00,
2014-01-11 11:28:00,80.6,71.9,30.06,SE,135,13.8,13.8,75,0.00,OVC,,0.00,WeatherDisplay:10.37,2014-01-11 16:28:00,
2014-01-11 11:33:00,79.3,71.5,30.06,ESE,112,11.5,11.5,77,0.00,OVC,,0.00,WeatherDisplay:10.37,2014-01-11 16:33:00,
2014-01-11 11:38:00,78.8,71.0,30.06,SE,135,9.2,9.2,77,0.00,OVC,,0.00,WeatherDisplay:10.37,2014-01-11 16:38:00,
2014-01-11 11:43:00,80.1,72.2,30.06,South,180,11.5,11.5,77,0.00,OVC,,0.00,WeatherDisplay:10.37,2014-01-11 16:43:00,
2014-01-11 11:48:00,79.0,70.4,30.03,SSW,202,8.1,8.1,75,0.00,OVC,,0.00,WeatherDisplay:10.37,2014-01-11 16:48:00,
2014-01-11 11:53:00,80.6,70.7,30.03,SE,135,12.7,12.7,72,0.00,OVC,,0.00,WeatherDisplay:10.37,2014-01-11 16:53:00,
2014-01-11 11:58:00,81.1,70.0,30.03,SSW,202,8.1,8.1,69,0.00,OVC,,0.00,WeatherDisplay:10.37,2014-01-11 16:58:00,
2014-01-11 12:03:00,82.4,71.2,30.03,SSE,158,8.1,8.1,69,0.00,SCT,,0.00,WeatherDisplay:10.37,2014-01-11 17:03:00,
2014-01-11 12:09:00,83.5,71.4,30.03,SSE,158,9.2,9.2,67,0.00,SCT,,0.00,WeatherDisplay:10.37,2014-01-11 17:09:00,
2014-01-11 12:14:00,82.2,70.2,30.03,SW,225,15.0,15.0,67,0.00,SCT,,0.00,WeatherDisplay:10.37,2014-01-11 17:14:00,
2014-01-11 12:19:00,82.9,70.4,30.03,South,180,13.8,13.8,66,0.00,SCT,,0.00,WeatherDisplay:10.37,2014-01-11 17:19:00,
2014-01-11 12:24:00,84.0,70.5,30.03,SSW,202,8.1,8.1,64,0.00,SCT,,0.00,WeatherDisplay:10.37,2014-01-11 17:24:00,
2014-01-11 12:29:00,83.8,69.9,30.03,SE,135,8.1,8.1,63,0.00,SCT,,0.00,WeatherDisplay:10.37,2014-01-11 17:29:00,
2014-01-11 12:34:00,84.0,70.1,30.00,SSE,158,16.1,16.1,63,0.00,SCT,,0.00,WeatherDisplay:10.37,2014-01-11 17:34:00,
2014-01-11 12:39:00,83.8,69.4,30.00,SSE,158,6.9,6.9,62,0.00,SCT,,0.00,WeatherDisplay:10.37,2014-01-11 17:39:00,
2014-01-11 12:44:00,84.4,69.5,30.00,SE,135,16.1,16.1,61,0.00,SCT,,0.00,WeatherDisplay:10.37,2014-01-11 17:44:00,
2014-01-11 12:49:00,84.0,69.1,29.97,SSE,158,14.0,14.0,61,0.00,SCT,,0.00,WeatherDisplay:10.37,2014-01-11 17:49:00,
2014-01-11 12:54:00,84.2,68.8,29.97,South,180,16.1,16.1,60,0.00,SCT,,0.00,WeatherDisplay:10.37,2014-01-11 17:54:00,
2014-01-11 12:59:00,84.4,69.0,29.97,South,180,12.7,12.7,60,0.00,SCT,,0.00,WeatherDisplay:10.37,2014-01-11 17:59:00,
2014-01-11 13:04:00,85.3,69.3,29.97,SSW,202,10.0,10.0,59,0.00,SCT,,0.00,WeatherDisplay:10.37,2014-01-11 18:04:00,
2014-01-11 13:09:00,84.9,68.5,29.97,SE,135,10.4,10.4,58,0.00,SCT,,0.00,WeatherDisplay:10.37,2014-01-11 18:09:00,
2014-01-11 13:14:00,86.4,69.3,29.97,SW,225,17.3,17.3,57,0.00,SCT,,0.00,WeatherDisplay:10.37,2014-01-11 18:14:00,
2014-01-11 13:19:00,85.5,68.5,29.97,SSW,202,12.7,12.7,57,0.00,SCT,,0.00,WeatherDisplay:10.37,2014-01-11 18:19:00,
2014-01-11 13:24:00,85.1,68.7,29.97,SSE,158,6.9,6.9,58,0.00,SCT,,0.00,WeatherDisplay:10.37,2014-01-11 18:24:00,
2014-01-11 13:29:00,84.6,67.6,29.97,SSE,158,15.2,15.2,57,0.00,SCT,,0.00,WeatherDisplay:10.37,2014-01-11 18:29:00,
2014-01-11 13:34:00,85.5,68.0,29.94,SE,135,10.4,10.4,56,0.00,SCT,,0.00,WeatherDisplay:10.37,2014-01-11 18:34:00,
2014-01-11 13:39:00,84.9,66.9,29.94,South,180,12.7,12.7,55,0.00,SCT,,0.00,WeatherDisplay:10.37,2014-01-11 18:39:00,
2014-01-11 13:44:00,85.3,67.3,29.94,SSE,158,17.6,17.6,55,0.00,SCT,,0.00,WeatherDisplay:10.37,2014-01-11 18:44:00,
2014-01-11 13:49:00,83.7,66.3,29.94,SSW,202,12.7,12.7,56,0.00,SCT,,0.00,WeatherDisplay:10.37,2014-01-11 18:49:00,
2014-01-11 13:54:00,84.7,66.3,29.94,East,90,13.8,13.8,54,0.00,SCT,,0.00,WeatherDisplay:10.37,2014-01-11 18:54:00,
2014-01-11 13:59:00,84.7,65.7,29.94,SSE,158,17.3,17.3,53,0.00,SCT,,0.00,WeatherDisplay:10.37,2014-01-11 18:59:00,
2014-01-11 14:04:00,85.1,66.6,29.93,South,180,12.7,12.7,54,0.00,FEW,,0.00,WeatherDisplay:10.37,2014-01-11 19:04:00,
2014-01-11 14:09:00,85.3,66.2,29.94,SSW,202,11.5,11.5,53,0.00,FEW,,0.00,WeatherDisplay:10.37,2014-01-11 19:09:00,
2014-01-11 14:14:00,84.6,66.1,29.94,South,180,13.8,13.8,54,0.00,FEW,,0.00,WeatherDisplay:10.37,2014-01-11 19:14:00,
2014-01-11 14:19:00,84.6,66.1,29.94,South,180,9.2,9.2,54,0.00,FEW,,0.00,WeatherDisplay:10.37,2014-01-11 19:19:00,
2014-01-11 14:24:00,85.8,66.7,29.94,ESE,112,10.4,10.4,53,0.00,FEW,,0.00,WeatherDisplay:10.37,2014-01-11 19:24:00,
2014-01-11 14:29:00,85.5,66.9,29.94,East,90,9.2,9.2,54,0.00,FEW,,0.00,WeatherDisplay:10.37,2014-01-11 19:29:00,
2014-01-11 14:34:00,85.1,66.6,29.91,South,180,9.2,9.2,54,0.00,FEW,,0.00,WeatherDisplay:10.37,2014-01-11 19:34:00,
2014-01-11 14:39:00,85.6,66.0,29.91,SSE,158,12.7,12.7,52,0.00,FEW,,0.00,WeatherDisplay:10.37,2014-01-11 19:39:00,
2014-01-11 14:44:00,83.8,65.9,29.91,SSE,158,9.2,9.2,55,0.00,FEW,,0.00,WeatherDisplay:10.37,2014-01-11 19:44:00,
2014-01-11 14:49:00,84.7,66.3,29.91,ESE,112,10.4,10.4,54,0.00,FEW,,0.00,WeatherDisplay:10.37,2014-01-11 19:49:00,
2014-01-11 14:54:00,85.8,66.2,29.91,SE,135,11.5,11.5,52,0.00,FEW,,0.00,WeatherDisplay:10.37,2014-01-11 19:54:00,
2014-01-11 14:59:00,86.0,65.8,29.91,SSE,158,12.7,12.7,51,0.00,FEW,,0.00,WeatherDisplay:10.37,2014-01-11 19:59:00,
2014-01-11 15:04:00,84.2,64.7,29.88,ESE,112,8.1,8.1,52,0.00,FEW,,0.00,WeatherDisplay:10.37,2014-01-11 20:04:00,
2014-01-11 15:08:00,84.7,65.2,29.88,SE,135,13.8,13.8,52,0.00,FEW,,0.00,WeatherDisplay:10.37,2014-01-11 20:08:00,
2014-01-11 15:13:00,86.5,66.3,29.88,South,180,8.1,8.1,51,0.00,FEW,,0.00,WeatherDisplay:10.37,2014-01-11 20:13:00,
2014-01-11 15:18:00,85.6,64.9,29.88,East,90,8.1,8.1,50,0.00,FEW,,0.00,WeatherDisplay:10.37,2014-01-11 20:18:00,
2014-01-11 15:23:00,84.4,64.3,29.88,SSE,158,10.4,10.4,51,0.00,FEW,,0.00,WeatherDisplay:10.37,2014-01-11 20:23:00,
2014-01-11 15:28:00,83.3,64.4,29.88,SSE,158,10.4,10.4,53,0.00,FEW,,0.00,WeatherDisplay:10.37,2014-01-11 20:28:00,
2014-01-11 15:33:00,83.3,64.4,29.88,SE,135,11.5,11.5,53,0.00,FEW,,0.00,WeatherDisplay:10.37,2014-01-11 20:33:00,
2014-01-11 15:38:00,82.8,65.5,29.88,SE,135,6.9,6.9,56,0.00,FEW,,0.00,WeatherDisplay:10.37,2014-01-11 20:38:00,
2014-01-11 15:43:00,82.6,64.8,29.88,South,180,6.9,6.9,55,0.00,FEW,,0.00,WeatherDisplay:10.37,2014-01-11 20:43:00,
2014-01-11 15:48:00,82.4,64.1,29.88,SE,135,10.4,10.4,54,0.00,FEW,,0.00,WeatherDisplay:10.37,2014-01-11 20:48:00,
2014-01-11 15:53:00,82.4,64.1,29.88,SE,135,8.5,8.5,54,0.00,FEW,,0.00,WeatherDisplay:10.37,2014-01-11 20:53:00,
2014-01-11 15:58:00,82.4,64.1,29.88,South,180,6.9,6.9,54,0.00,FEW,,0.00,WeatherDisplay:10.37,2014-01-11 20:58:00,
2014-01-11 16:03:00,83.5,63.4,29.88,ESE,112,15.0,15.0,51,0.00,SCT,,0.00,WeatherDisplay:10.37,2014-01-11 21:03:00,
2014-01-11 16:08:00,83.8,63.2,29.88,SE,135,12.7,12.7,50,0.00,SCT,,0.00,WeatherDisplay:10.37,2014-01-11 21:08:00,
2014-01-11 16:13:00,83.8,63.2,29.88,ESE,112,7.8,7.8,50,0.00,SCT,,0.00,WeatherDisplay:10.37,2014-01-11 21:13:00,
2014-01-11 16:18:00,83.1,62.0,29.91,ESE,112,15.4,15.4,49,0.00,SCT,,0.00,WeatherDisplay:10.37,2014-01-11 21:18:00,
2014-01-11 16:23:00,82.8,62.2,29.91,SSE,158,12.7,12.7,50,0.00,SCT,,0.00,WeatherDisplay:10.37,2014-01-11 21:23:00,
2014-01-11 16:28:00,82.6,62.1,29.91,SSW,202,13.8,13.8,50,0.00,SCT,,0.00,WeatherDisplay:10.37,2014-01-11 21:28:00,
2014-01-11 16:33:00,82.8,62.2,29.91,ENE,68,6.9,6.9,50,0.00,SCT,,0.00,WeatherDisplay:10.37,2014-01-11 21:33:00,
2014-01-11 16:34:00,82.6,62.1,29.91,SSE,158,8.1,8.1,50,0.00,SCT,,0.00,WeatherDisplay:10.37,2014-01-11 21:34:00,
2014-01-11 16:39:00,83.1,62.6,29.91,SSE,158,17.6,17.6,50,0.00,SCT,,0.00,WeatherDisplay:10.37,2014-01-11 21:39:00,
2014-01-11 16:44:00,83.7,62.5,29.91,SSE,158,13.8,13.8,49,0.00,SCT,,0.00,WeatherDisplay:10.37,2014-01-11 21:44:00,
2014-01-11 16:49:00,83.7,62.5,29.88,SSW,202,10.4,10.4,49,0.00,SCT,,0.00,WeatherDisplay:10.37,2014-01-11 21:49:00,
2014-01-11 16:54:00,83.8,62.6,29.88,SE,135,12.7,12.7,49,0.00,SCT,,0.00,WeatherDisplay:10.37,2014-01-11 21:54:00,
2014-01-11 16:59:00,83.5,62.3,29.88,SSE,158,19.7,19.7,49,0.00,SCT,,0.00,WeatherDisplay:10.37,2014-01-11 21:59:00,
2014-01-11 17:04:00,83.7,62.5,29.91,SSE,158,9.2,9.2,49,0.00,BKN,,0.00,WeatherDisplay:10.37,2014-01-11 22:04:00,
2014-01-11 17:09:00,82.9,61.8,29.91,SSE,158,12.1,12.1,49,0.00,BKN,,0.00,WeatherDisplay:10.37,2014-01-11 22:09:00,
2014-01-11 17:14:00,82.6,62.1,29.91,South,180,19.6,19.6,50,0.00,BKN,,0.00,WeatherDisplay:10.37,2014-01-11 22:14:00,
2014-01-11 17:19:00,81.9,62.0,29.91,ENE,68,15.0,15.0,51,0.00,BKN,,0.00,WeatherDisplay:10.37,2014-01-11 22:19:00,
2014-01-11 17:24:00,81.5,61.6,29.91,SSE,158,13.8,13.8,51,0.00,BKN,,0.00,WeatherDisplay:10.37,2014-01-11 22:24:00,
2014-01-11 17:29:00,80.4,62.2,29.91,ESE,112,8.1,8.1,54,0.00,BKN,,0.00,WeatherDisplay:10.37,2014-01-11 22:29:00,
2014-01-11 17:34:00,80.1,62.4,29.94,SE,135,9.2,9.2,55,0.00,BKN,,0.00,WeatherDisplay:10.37,2014-01-11 22:34:00,
2014-01-11 17:39:00,79.7,62.6,29.94,SE,135,11.5,11.5,56,0.00,BKN,,0.00,WeatherDisplay:10.37,2014-01-11 22:39:00,
2014-01-11 17:44:00,79.5,62.4,29.94,ESE,112,11.5,11.5,56,0.00,BKN,,0.00,WeatherDisplay:10.37,2014-01-11 22:44:00,
2014-01-11 17:49:00,79.2,62.6,29.94,SSE,158,12.7,12.7,57,0.00,BKN,,0.00,WeatherDisplay:10.37,2014-01-11 22:49:00,
2014-01-11 17:54:00,79.0,62.9,29.94,ESE,112,10.4,10.4,58,0.00,BKN,,0.00,WeatherDisplay:10.37,2014-01-11 22:54:00,
2014-01-11 17:59:00,78.8,63.3,29.94,ENE,68,8.1,8.1,59,0.00,BKN,,0.00,WeatherDisplay:10.37,2014-01-11 22:59:00,
2014-01-11 18:04:00,78.4,63.4,29.91,SSE,158,8.1,8.1,60,0.00,CLR,,0.00,WeatherDisplay:10.37,2014-01-11 23:04:00,
2014-01-11 18:09:00,78.3,63.2,29.91,East,90,5.8,6.7,60,0.00,CLR,,0.00,WeatherDisplay:10.37,2014-01-11 23:09:00,
2014-01-11 18:14:00,78.3,63.2,29.91,ESE,112,8.1,8.1,60,0.00,CLR,,0.00,WeatherDisplay:10.37,2014-01-11 23:14:00,
2014-01-11 18:19:00,78.1,63.5,29.94,SSE,158,8.1,8.1,61,0.00,CLR,,0.00,WeatherDisplay:10.37,2014-01-11 23:19:00,
2014-01-11 18:24:00,78.1,63.5,29.94,East,90,9.2,9.2,61,0.00,CLR,,0.00,WeatherDisplay:10.37,2014-01-11 23:24:00,
2014-01-11 18:29:00,77.9,63.8,29.94,ESE,112,8.1,8.1,62,0.00,CLR,,0.00,WeatherDisplay:10.37,2014-01-11 23:29:00,
2014-01-11 18:34:00,77.7,64.1,29.94,SSE,158,6.9,6.9,63,0.00,CLR,,0.00,WeatherDisplay:10.37,2014-01-11 23:34:00,
2014-01-11 18:39:00,77.5,63.9,29.94,East,90,8.1,8.1,63,0.00,CLR,,0.00,WeatherDisplay:10.37,2014-01-11 23:39:00,
2014-01-11 18:44:00,77.5,64.4,29.94,SE,135,6.9,6.9,64,0.00,CLR,,0.00,WeatherDisplay:10.37,2014-01-11 23:44:00,
2014-01-11 18:49:00,77.4,64.2,29.94,SE,135,4.6,4.6,64,0.00,CLR,,0.00,WeatherDisplay:10.37,2014-01-11 23:49:00,
2014-01-11 18:54:00,77.4,64.7,29.94,SE,135,8.1,8.1,65,0.00,CLR,,0.00,WeatherDisplay:10.37,2014-01-11 23:54:00,
2014-01-11 18:59:00,77.5,64.8,29.94,SE,135,5.8,5.8,65,0.00,CLR,,0.00,WeatherDisplay:10.37,2014-01-11 23:59:00,
2014-01-11 19:04:00,77.4,65.1,29.97,SSE,158,9.2,9.2,66,0.00,FEW,,0.00,WeatherDisplay:10.37,2014-01-12 00:04:00,
2014-01-11 19:09:00,77.7,65.5,29.97,ENE,68,15.0,15.0,66,0.00,FEW,,0.00,WeatherDisplay:10.37,2014-01-12 00:09:00,
2014-01-11 19:14:00,77.7,65.5,29.97,East,90,8.1,8.1,66,0.00,FEW,,0.00,WeatherDisplay:10.37,2014-01-12 00:14:00,
2014-01-11 19:19:00,77.7,65.9,29.94,ESE,112,5.8,5.8,67,0.00,FEW,,0.00,WeatherDisplay:10.37,2014-01-12 00:19:00,
2014-01-11 19:24:00,76.8,66.3,29.94,SE,135,8.1,8.1,70,0.00,FEW,,0.00,WeatherDisplay:10.37,2014-01-12 00:24:00,
2014-01-11 19:29:00,76.5,66.4,29.94,ESE,112,8.1,8.1,71,0.00,FEW,,0.00,WeatherDisplay:10.37,2014-01-12 00:29:00,
2014-01-11 19:34:00,74.8,68.3,29.97,ESE,112,8.1,8.1,80,0.04,RA,,0.04,WeatherDisplay:10.37,2014-01-12 00:34:00,
2014-01-11 19:39:00,71.4,67.3,29.97,SSE,158,24.2,24.2,87,0.13,RA,,0.21,WeatherDisplay:10.37,2014-01-12 00:39:00,
2014-01-11 19:44:00,68.0,64.6,29.97,SSW,202,10.4,10.4,89,0.34,RA,,0.34,WeatherDisplay:10.37,2014-01-12 00:44:00,
2014-01-11 19:49:00,66.9,64.5,30.00,ESE,112,15.2,15.2,92,0.43,RA,,0.43,WeatherDisplay:10.37,2014-01-12 00:49:00,
2014-01-11 19:54:00,66.4,64.9,30.00,South,180,11.5,11.5,95,0.46,RA,,0.50,WeatherDisplay:10.37,2014-01-12 00:54:00,
2014-01-11 20:00:00,66.0,64.8,30.00,ESE,112,5.8,5.8,96,0.50,RA,,0.59,WeatherDisplay:10.37,2014-01-12 01:00:00,
2014-01-11 20:05:00,65.8,65.0,30.00,ESE,112,6.9,6.9,97,0.59, +RA,,0.59,WeatherDisplay:10.37,2014-01-12 01:05:00,
2014-01-11 20:10:00,66.0,65.1,30.00,ESE,112,4.6,4.6,97,0.59, +RA,,0.59,WeatherDisplay:10.37,2014-01-12 01:10:00,
2014-01-11 20:15:00,66.0,65.4,30.00,ESE,112,4.6,4.6,98,0.63, +RA,,0.63,WeatherDisplay:10.37,2014-01-12 01:15:00,
2014-01-11 20:20:00,66.0,65.4,30.00,SSE,158,3.5,3.5,98,0.63, +RA,,0.63,WeatherDisplay:10.37,2014-01-12 01:20:00,
2014-01-11 20:25:00,66.2,65.6,30.00,SE,135,4.6,4.6,98,0.68, +RA,,0.68,WeatherDisplay:10.37,2014-01-12 01:25:00,
2014-01-11 20:30:00,66.4,65.8,30.00,SSE,158,9.2,9.2,98,0.68, +RA,,0.68,WeatherDisplay:10.37,2014-01-12 01:30:00,
2014-01-11 20:35:00,66.4,65.8,29.97,ESE,112,5.8,5.8,98,0.64, +RA,,0.68,WeatherDisplay:10.37,2014-01-12 01:35:00,
2014-01-11 20:40:00,66.4,65.8,29.97,South,180,3.6,3.6,98,0.55, +RA,,0.68,WeatherDisplay:10.37,2014-01-12 01:40:00,
2014-01-11 20:45:00,66.6,66.0,29.97,SSE,158,4.6,4.6,98,0.33, +RA,,0.68,WeatherDisplay:10.37,2014-01-12 01:45:00,
2014-01-11 20:50:00,66.6,66.0,30.00,SE,135,5.8,5.8,98,0.25, +RA,,0.68,WeatherDisplay:10.37,2014-01-12 01:50:00,
2014-01-11 20:55:00,66.6,66.0,30.00,SE,135,6.2,6.2,98,0.21, +RA,,0.68,WeatherDisplay:10.37,2014-01-12 01:55:00,
2014-01-11 21:00:00,66.7,66.2,30.00,SE,135,5.8,5.8,98,0.17, +RA,,0.68,WeatherDisplay:10.37,2014-01-12 02:00:00,
2014-01-11 21:05:00,66.7,66.2,30.00,SE,135,4.6,4.6,98,0.09,-RA,,0.68,WeatherDisplay:10.37,2014-01-12 02:05:00,
2014-01-11 21:10:00,66.6,66.0,30.00,East,90,6.9,6.9,98,0.09,-RA,,0.68,WeatherDisplay:10.37,2014-01-12 02:10:00,
2014-01-11 21:15:00,66.6,66.0,30.00,ESE,112,4.6,4.6,98,0.05,-RA,,0.68,WeatherDisplay:10.37,2014-01-12 02:15:00,
2014-01-11 21:20:00,66.6,66.0,30.00,SE,135,3.6,3.8,98,0.05,-RA,,0.68,WeatherDisplay:10.37,2014-01-12 02:20:00,
2014-01-11 21:25:00,66.6,66.0,30.00,ESE,112,5.8,5.8,98,0.00,-RA,,0.68,WeatherDisplay:10.37,2014-01-12 02:25:00,
2014-01-11 21:30:00,66.6,66.0,30.00,SSE,158,4.6,4.6,98,0.00,-RA,,0.68,WeatherDisplay:10.37,2014-01-12 02:30:00,
2014-01-11 21:35:00,66.6,66.0,30.00,SSE,158,5.8,5.8,98,0.00,-RA,,0.68,WeatherDisplay:10.37,2014-01-12 02:35:00,
2014-01-11 21:40:00,66.6,66.0,30.00,SE,135,4.9,4.9,98,0.00,-RA,,0.68,WeatherDisplay:10.37,2014-01-12 02:40:00,
2014-01-11 21:45:00,66.6,66.0,30.00,ESE,112,5.8,5.8,98,0.00,-RA,,0.68,WeatherDisplay:10.37,2014-01-12 02:45:00,
2014-01-11 21:50:00,66.6,66.0,30.00,SE,126,3.0,5.0,98,0.00,-RA,,0.68,WeatherDisplay:10.37,2014-01-12 02:50:00,
2014-01-11 21:55:00,66.4,65.8,30.00,ESE,112,4.6,4.6,98,0.00,-RA,,0.68,WeatherDisplay:10.37,2014-01-12 02:55:00,
2014-01-11 22:00:00,66.6,66.0,30.00,SSE,158,5.4,5.4,98,0.00,-RA,,0.68,WeatherDisplay:10.37,2014-01-12 03:00:00,
2014-01-11 22:05:00,66.4,65.8,30.03,SE,139,3.0,6.0,98,0.00,SCT,,0.68,WeatherDisplay:10.37,2014-01-12 03:05:00,
2014-01-11 22:10:00,66.4,65.8,30.03,ESE,121,2.0,6.0,98,0.00,SCT,,0.68,WeatherDisplay:10.37,2014-01-12 03:10:00,
2014-01-11 22:15:00,66.4,65.8,30.03,SE,135,5.8,5.8,98,0.00,SCT,,0.68,WeatherDisplay:10.37,2014-01-12 03:15:00,
2014-01-11 22:20:00,66.4,65.8,30.03,SE,129,2.0,5.0,98,0.00,SCT,,0.68,WeatherDisplay:10.37,2014-01-12 03:20:00,
2014-01-11 22:25:00,66.4,65.8,30.03,ESE,112,4.6,4.6,98,0.00,SCT,,0.68,WeatherDisplay:10.37,2014-01-12 03:25:00,
2014-01-11 22:30:00,66.4,65.8,30.03,SE,135,4.6,4.6,98,0.00,SCT,,0.68,WeatherDisplay:10.37,2014-01-12 03:30:00,
2014-01-11 22:35:00,66.4,65.8,30.00,ESE,112,3.5,3.5,98,0.00,SCT,,0.68,WeatherDisplay:10.37,2014-01-12 03:35:00,
2014-01-11 22:40:00,66.4,65.8,30.00,SE,135,3.5,3.5,98,0.00,SCT,,0.68,WeatherDisplay:10.37,2014-01-12 03:40:00,
2014-01-11 22:45:00,66.2,65.6,30.00,SE,125,2.0,6.0,98,0.00,SCT,,0.68,WeatherDisplay:10.37,2014-01-12 03:45:00,
2014-01-11 22:50:00,66.2,65.6,30.00,SE,128,1.0,6.0,98,0.00,SCT,,0.68,WeatherDisplay:10.37,2014-01-12 03:50:00,
2014-01-11 22:55:00,66.0,65.4,30.00,SSE,158,4.6,4.6,98,0.00,SCT,,0.68,WeatherDisplay:10.37,2014-01-12 03:55:00,
2014-01-11 23:00:00,66.0,65.4,30.00,SE,136,2.0,7.0,98,0.00,SCT,,0.68,WeatherDisplay:10.37,2014-01-12 04:00:00,
2014-01-11 23:05:00,66.0,65.4,30.00,SSE,158,2.3,2.3,98,0.00,FEW,,0.68,WeatherDisplay:10.37,2014-01-12 04:05:00,
2014-01-11 23:10:00,66.0,65.4,30.00,ESE,112,3.5,3.5,98,0.00,FEW,,0.68,WeatherDisplay:10.37,2014-01-12 04:10:00,
2014-01-11 23:15:00,65.8,65.3,30.00,SSE,158,3.5,3.5,98,0.00,FEW,,0.68,WeatherDisplay:10.37,2014-01-12 04:15:00,
2014-01-11 23:20:00,65.7,65.1,30.00,East,90,3.5,3.5,98,0.00,FEW,,0.68,WeatherDisplay:10.37,2014-01-12 04:20:00,
2014-01-11 23:25:00,65.7,65.1,30.00,SE,135,5.8,5.8,98,0.00,FEW,,0.68,WeatherDisplay:10.37,2014-01-12 04:25:00,
2014-01-11 23:30:00,65.6,65.1,30.00,SE,125,2.0,4.0,98,0.00,FEW,,0.68,WeatherDisplay:10.37,2014-01-12 04:30:00,
2014-01-11 23:35:00,65.5,64.9,30.00,SE,135,4.6,4.6,98,0.00,FEW,,0.68,WeatherDisplay:10.37,2014-01-12 04:35:00,
2014-01-11 23:40:00,65.3,64.7,30.00,ESE,112,3.8,3.8,98,0.00,FEW,,0.68,WeatherDisplay:10.37,2014-01-12 04:40:00,
2014-01-11 23:45:00,65.1,64.5,30.00,SE,128,1.0,4.0,98,0.00,FEW,,0.68,WeatherDisplay:10.37,2014-01-12 04:45:00,
2014-01-11 23:50:00,65.3,64.7,30.00,SSE,158,3.5,3.5,98,0.00,FEW,,0.68,WeatherDisplay:10.37,2014-01-12 04:50:00,
2014-01-11 23:55:00,65.5,64.9,30.00,SE,135,2.3,2.4,98,0.00,FEW,,0.68,WeatherDisplay:10.37,2014-01-12 04:55:00,